<?xml version="1.0"?>
<gpx xmlns="http://www.topografix.com/GPX/1/1" xmlns:xsi="http://www.w3.org/2001/XMLSchema-instance" version="1.1" creator="GPX RubyGem 1.0.0 -- http://dougfales.github.io/gpx/" xsi:schemaLocation="http://www.topografix.com/GPX/1/1 http://www.topografix.com/GPX/1/1/gpx.xsd">
  <metadata>
    <name/>
    <time>2026-05-09T20:37:50+00:00</time>
    <bound minlat="90.0" minlon="180.0" maxlat="-90.0" maxlon="-180.0"/>
  </metadata>
  <trk>
    <name/>
    <trkseg>
      <trkpt lat="49.006194" lon="7.573818">
        <time>1970-01-01T00:00:00+00:00</time>
        <ele>279.0</ele>
      </trkpt>
      <trkpt lat="49.006392" lon="7.571487">
        <time>1970-01-01T00:00:00+00:00</time>
        <ele>273.0</ele>
      </trkpt>
      <trkpt lat="49.006425" lon="7.571115">
        <time>1970-01-01T00:00:00+00:00</time>
        <ele>280.0</ele>
      </trkpt>
      <trkpt lat="49.006512" lon="7.570239">
        <time>1970-01-01T00:00:00+00:00</time>
        <ele>297.0</ele>
      </trkpt>
      <trkpt lat="49.006556" lon="7.569366">
        <time>1970-01-01T00:00:00+00:00</time>
        <ele>310.0</ele>
      </trkpt>
      <trkpt lat="49.006563" lon="7.569174">
        <time>1970-01-01T00:00:00+00:00</time>
        <ele>311.0</ele>
      </trkpt>
      <trkpt lat="49.006682" lon="7.567411">
        <time>1970-01-01T00:00:00+00:00</time>
        <ele>314.0</ele>
      </trkpt>
      <trkpt lat="49.006589" lon="7.567375">
        <time>1970-01-01T00:00:00+00:00</time>
        <ele>321.0</ele>
      </trkpt>
      <trkpt lat="49.006547" lon="7.567265">
        <time>1970-01-01T00:00:00+00:00</time>
        <ele>323.0</ele>
      </trkpt>
      <trkpt lat="49.006489" lon="7.567015">
        <time>1970-01-01T00:00:00+00:00</time>
        <ele>327.0</ele>
      </trkpt>
      <trkpt lat="49.006345" lon="7.566795">
        <time>1970-01-01T00:00:00+00:00</time>
        <ele>336.0</ele>
      </trkpt>
      <trkpt lat="49.006146" lon="7.566606">
        <time>1970-01-01T00:00:00+00:00</time>
        <ele>346.0</ele>
      </trkpt>
      <trkpt lat="49.006035" lon="7.566285">
        <time>1970-01-01T00:00:00+00:00</time>
        <ele>346.0</ele>
      </trkpt>
      <trkpt lat="49.005551" lon="7.56551">
        <time>1970-01-01T00:00:00+00:00</time>
        <ele>361.0</ele>
      </trkpt>
      <trkpt lat="49.005487" lon="7.565822">
        <time>1970-01-01T00:00:00+00:00</time>
        <ele>366.0</ele>
      </trkpt>
      <trkpt lat="49.005117" lon="7.564962">
        <time>1970-01-01T00:00:00+00:00</time>
        <ele>364.0</ele>
      </trkpt>
      <trkpt lat="49.004997" lon="7.56483">
        <time>1970-01-01T00:00:00+00:00</time>
        <ele>362.0</ele>
      </trkpt>
      <trkpt lat="49.005061" lon="7.565364">
        <time>1970-01-01T00:00:00+00:00</time>
        <ele>367.0</ele>
      </trkpt>
      <trkpt lat="49.005144" lon="7.565728">
        <time>1970-01-01T00:00:00+00:00</time>
        <ele>368.0</ele>
      </trkpt>
      <trkpt lat="49.005144" lon="7.565728">
        <time>1970-01-01T00:00:00+00:00</time>
        <ele>368.0</ele>
      </trkpt>
      <trkpt lat="49.005061" lon="7.565364">
        <time>1970-01-01T00:00:00+00:00</time>
        <ele>367.0</ele>
      </trkpt>
      <trkpt lat="49.004997" lon="7.56483">
        <time>1970-01-01T00:00:00+00:00</time>
        <ele>362.0</ele>
      </trkpt>
      <trkpt lat="49.005117" lon="7.564962">
        <time>1970-01-01T00:00:00+00:00</time>
        <ele>364.0</ele>
      </trkpt>
      <trkpt lat="49.005487" lon="7.565822">
        <time>1970-01-01T00:00:00+00:00</time>
        <ele>366.0</ele>
      </trkpt>
      <trkpt lat="49.005551" lon="7.56551">
        <time>1970-01-01T00:00:00+00:00</time>
        <ele>361.0</ele>
      </trkpt>
      <trkpt lat="49.006035" lon="7.566285">
        <time>1970-01-01T00:00:00+00:00</time>
        <ele>346.0</ele>
      </trkpt>
      <trkpt lat="49.006146" lon="7.566606">
        <time>1970-01-01T00:00:00+00:00</time>
        <ele>346.0</ele>
      </trkpt>
      <trkpt lat="49.006345" lon="7.566795">
        <time>1970-01-01T00:00:00+00:00</time>
        <ele>336.0</ele>
      </trkpt>
      <trkpt lat="49.006489" lon="7.567015">
        <time>1970-01-01T00:00:00+00:00</time>
        <ele>327.0</ele>
      </trkpt>
      <trkpt lat="49.006547" lon="7.567265">
        <time>1970-01-01T00:00:00+00:00</time>
        <ele>323.0</ele>
      </trkpt>
      <trkpt lat="49.006589" lon="7.567375">
        <time>1970-01-01T00:00:00+00:00</time>
        <ele>321.0</ele>
      </trkpt>
      <trkpt lat="49.006682" lon="7.567411">
        <time>1970-01-01T00:00:00+00:00</time>
        <ele>314.0</ele>
      </trkpt>
      <trkpt lat="49.006563" lon="7.569174">
        <time>1970-01-01T00:00:00+00:00</time>
        <ele>311.0</ele>
      </trkpt>
      <trkpt lat="49.006556" lon="7.569366">
        <time>1970-01-01T00:00:00+00:00</time>
        <ele>310.0</ele>
      </trkpt>
      <trkpt lat="49.006512" lon="7.570239">
        <time>1970-01-01T00:00:00+00:00</time>
        <ele>297.0</ele>
      </trkpt>
      <trkpt lat="49.006425" lon="7.571115">
        <time>1970-01-01T00:00:00+00:00</time>
        <ele>280.0</ele>
      </trkpt>
      <trkpt lat="49.006392" lon="7.571487">
        <time>1970-01-01T00:00:00+00:00</time>
        <ele>273.0</ele>
      </trkpt>
      <trkpt lat="49.006194" lon="7.573818">
        <time>1970-01-01T00:00:00+00:00</time>
        <ele>279.0</ele>
      </trkpt>
    </trkseg>
  </trk>
</gpx>
